Flag for Lebanon Weather past 2 weeks in Beirut, Lebanon

Now
81 °F

Scattered clouds.


Feels Like: 85 °F
Forecast: 76 / 84 °F
Wind: 6 mph from Southwest

Location: Beirut Airport

Current Time: Jul 24, 2014 at 8:54:34 PM

Latest Report: Jul 24, 2014 at 8:00 PM


Visibility: N/A

Pressure: 29.77 "Hg

Humidity: 74%

Dew point: 72 °F

Location of BeirutLocation

Historic Weather in Beirut — Graph

°F

Beirut temperature yesterday

Maximum temperature yesterday: 86 °F (at 4:00 PM)
Minimum temperature yesterday: 77 °F (at 5:00 AM)
Average temperature yesterday: 81 °F

Past Weeks' High & Low Weather Summary

 TemperatureHumidityPressure
High86 °F (Jul 10, 12:00 PM)84% (Jul 10, 9:00 PM)29.92 "Hg (Jul 10, 9:00 PM)
Low75 °F (Jul 18, 6:00 AM)48% (Jul 13, 12:00 AM)29.71 "Hg (Jul 21, 4:00 AM)
Average81 °F66%29.81 "Hg
* Reported Jul 9 7:00 PM — Jul 24 7:00 PM, Beirut, Weather by CustomWeather, © 2014

Note: Actual official high and low records may vary slightly from our data, if they occured in-between our weather recording intervals... More about our weather records

Advertising

Beirut weather history for previous 24 hours

 ConditionsComfort  
Time TempWeatherWind HumidityBarometerVisibility
7:00 PM
Jul 24
82 °FScattered clouds.7 mph70%29.77 "HgN/A
6:00 PM84 °FScattered clouds.10 mph66%29.77 "HgN/A
5:00 PM84 °FScattered clouds.9 mph62%29.80 "HgN/A
4:00 PM84 °FScattered clouds.12 mph66%29.80 "HgN/A
3:00 PM84 °FScattered clouds.13 mph66%29.80 "HgN/A
2:00 PM86 °FScattered clouds.15 mph62%29.80 "HgN/A
1:00 PM86 °FScattered clouds.15 mph62%29.80 "HgN/A
12:00 PM86 °FScattered clouds.13 mph66%29.80 "HgN/A
11:00 AM84 °FScattered clouds.14 mph66%29.80 "HgN/A
10:00 AM84 °FScattered clouds.15 mph66%29.80 "HgN/A
9:00 AM82 °FScattered clouds.14 mph70%29.80 "HgN/A
8:00 AM81 °FScattered clouds.10 mph70%29.80 "HgN/A
7:00 AM79 °FScattered clouds.6 mph74%29.80 "HgN/A
6:00 AM77 °FPassing clouds.6 mph74%29.77 "HgN/A
5:00 AM79 °FPassing clouds.6 mph74%29.77 "HgN/A
4:00 AM79 °FPassing clouds.5 mph70%29.80 "HgN/A
3:00 AM79 °FPassing clouds.6 mph70%29.80 "HgN/A
2:00 AM77 °FPassing clouds.5 mph69%29.83 "HgN/A
1:00 AM79 °FPassing clouds.5 mph74%29.83 "HgN/A
12:00 AM79 °FPassing clouds.5 mph79%29.83 "Hg5 mi
11:00 PM
Jul 23
79 °FPassing clouds.5 mph84%29.83 "HgN/A
10:00 PM81 °FPassing clouds.6 mph79%29.83 "HgN/A
9:00 PM81 °FPassing clouds.6 mph79%29.83 "Hg5 mi
8:00 PM81 °FPassing clouds.7 mph79%29.83 "Hg5 mi
Weather by CustomWeather, © 2014

See weather overviewHow to use our weather pages